Location: ??????????
(54.8537°N, 38.8755°E)
Time: 01:49:31
(UTC+00:00)

Tiros 1 - Pass Details

Date: 18 September 2024
Orbit: 623 x 654 km, 48.4° (Epoch: 15 October)

Event Time Altitude Azimuth Distance (km) Brightness Sun altitude
Rises 16:04:22 0° 268° (W) 2,906 12.6 -5.4°
Reaches altitude 10° 16:06:54 10° 257° (WSW) 2,001 11.0 -5.7°
Maximum altitude 16:10:51 29° 198° (SSW) 1,165 8.6 -6.3°
Drops below altitude 10° 16:14:49 10° 139° (SE) 2,011 9.2 -6.8°
Enters shadow 16:16:04 - 133° (SE) 2,444 9.6 -7.0°
Sets 16:17:22 0° 128° (SE) 2,923 - -7.2°
